Regional Weather Roundup
Issued by NWS

Home | Current Version | Previous Version | Graphics & Text | Print | Product List | Glossary On
Versions: 1 2 3 4 5 6 7 8 9 10 11 12 13 14 15 16 17 18 19 20 21 22 23 24 25 26 27 28 29 30 31 32 33 34 35 36 37 38 39 40 41 42 43 44 45 46 47 48 49 50
257
ASUS45 KBOU 220307
RWRCO

WEATHER ROUNDUP FOR COLORADO
NATIONAL WEATHER SERVICE DENVER/BOULDER CO
900 PM MDT THU SEP 21 2017

NOTE: "FAIR" INDICATES FEW OR NO CLOUDS BELOW 12000 FEET WITH NO
SIGNIFICANT WEATHER AND/OR OBSTRUCTIONS TO VISIBILITY.

COZ001>005-013-030-031-220400-
...NORTHWEST COLORADO...

CITY           SKY/WX    TMP DP  RH WIND       PRES   REMARKS
CRAIG          FAIR      55  25  31 CALM      29.75S
HAYDEN         FAIR      65  21  18 S6        29.80S
MEEKER         FAIR      59  21  23 E3        29.76S
RABBIT EARS PA FAIR      50  21  32 S10G26    30.08S
STEAMBOAT SPGS FAIR      60  27  29 CALM      29.82R
WALDEN         FAIR      52  19  28 SE7       29.92S
$$

COZ006>008-011-220400-
...WEST CENTRAL VALLEYS...

CITY           SKY/WX    TMP DP  RH WIND       PRES   REMARKS
GRAND JUNCTION FAIR      76  20  12 SE10      29.67R
MONTROSE       FAIR      74  17  11 SE17G29   29.80R
EAGLE          FAIR      65  21  18 VRB3      29.83S
RIFLE          FAIR      68  16  13 SE6       29.72S
DELTA          FAIR      75  18  11 S8        29.75R
NUCLA          FAIR      72  18  13 S21G31    29.83R
$$

COZ017>023-064>068-220400-
...SOUTHWEST COLORADO...

CITY           SKY/WX    TMP DP  RH WIND       PRES   REMARKS
DURANGO        FAIR      67  25  20 SW9       29.94R
CORTEZ         FAIR      70  18  13 SW13G25   29.86R
PAGOSA SPRINGS FAIR      54  22  28 CALM      30.03R
TELLURIDE      FAIR      60  19  19 S10G23    30.06R
WOLF CREEK PAS NOT AVBL
$$

COZ009-010-012-014-032>034-037-058>063-220400-
...CENTRAL COLORADO...

CITY           SKY/WX    TMP DP  RH WIND       PRES   REMARKS
ASPEN          FAIR      49  29  46 CALM      29.89S
BUENA VISTA    FAIR      61  19  19 S13       29.97R
COPPER MTN     FAIR      52  16  24 S16G23    30.21F
BERTHOUD PASS  FAIR      43  34  70 SW13G20   30.24F
COTTONWOOD PAS FAIR      61  14  16 SW8G20    30.10R
GUNNISON       FAIR      62  21  20 S16G24    29.96R
KREMMLING      FAIR      64  19  17 SE6       29.87S
LEADVILLE      FAIR      52  17  25 SE9       30.06S
MONARCH PASS   FAIR      45  18  33 SW30G37   30.36R
SALIDA         FAIR      66  19  16 S6        30.04R
SUNLIGHT       FAIR      46  16  29 S7G17     30.11R
WILKERSON PASS FAIR      48  14  25 SW13G22   30.19F
$$

COZ069>075-220400-
...SAN LUIS VALLEY/SANGRE DE CRISTO MOUNTAINS...

CITY           SKY/WX    TMP DP  RH WIND       PRES   REMARKS
ALAMOSA        FAIR      50  27  40 SE7       29.99R
DEL NORTE      FAIR      60  22  22 W5        30.02R
LA VETA PASS   FAIR      54  23  30 S17G38    30.27R
SAGUACHE       FAIR      61  23  23 CALM      30.02S
$$

COZ035-036-038>040-220400-
...NORTHERN COLORADO FRONT RANGE...

CITY           SKY/WX    TMP DP  RH WIND       PRES   REMARKS
DENVER INTL AP FAIR      75  21  13 S18       29.70R
DMNS CITY PARK   N/A     75  23  14 SE9G15    29.70S
AURORA         CLEAR     73  22  14 S12       29.73R
FRONT RANGE AP PTCLDY    73  23  15 S14G20    29.72
ERIE MUNI ARPT FAIR      67  26  21 SW6       29.71R
BOULDER MUN AP FAIR      70  28  21 S6        29.67R
CENTENNIAL     FAIR      73  19  13 S17       29.74R
BROOMFIELD     PTCLDY    73  27  17 SW3       29.71R
FORT COLLINS   FAIR      70  35  27 S3        29.63
LONGMONT       FAIR      67  30  25 SW3       29.67R
$$

COZ041-046-047-076>085-087-088-220400-
...PIKES PEAK/PALMER DIVIDE AND SOUTHERN FOOTHILLS...

CITY           SKY/WX    TMP DP  RH WIND       PRES   REMARKS
COLO. SPRINGS  FAIR      69  26  20 S13       29.84R
A. F. ACADEMY  FAIR      66  21  18 E10       29.85R
SCHRIEVER AFB  FAIR      66  22  18 SW12      29.84R
CHEYENNE MTN   FAIR      69  19  15 S8        29.85R
ELLICOTT         N/A    N/A N/A N/A S13       29.83R
FALCON         FAIR      65  21  18 SW17      29.88S
FORT CARSON    FAIR      71  24  17 SW9       29.80R
LIMON          FAIR      69  25  19 S13       29.75S
MONUMENT HILL  FAIR      61  23  23 S15       29.89R
CANON CITY     CLEAR     73  25  16 S7        29.79R
WALSENBURG     FAIR      68  19  15 SW10      29.86S
TRINIDAD       FAIR      71  29  21 SW12      29.86S
$$

COZ042>045-048>051-090-091-220400-
...NORTHEAST COLORADO...

CITY           SKY/WX    TMP DP  RH WIND       PRES   REMARKS
GREELEY ARPT   FAIR      74  29  19 S16       29.61F
AKRON          FAIR      71  24  17 S10       29.69R
BURLINGTON     FAIR      74  37  26 S16       29.71R
WRAY           FAIR      73  32  21 S10       29.65S
YUMA           FAIR      63  32  31 S7        29.67R
STERLING       FAIR      66  34  30 S7        29.62S
HOLYOKE        FAIR      64  36  34 S9        29.65R
FORT MORGAN    FAIR      71  24  17 SE9       29.66R
$$

COZ086-089-092>099-220400-
...SOUTHEAST COLORADO...

CITY           SKY/WX    TMP DP  RH WIND       PRES   REMARKS
PUEBLO         FAIR      76  24  14 SW9       29.73R
LA JUNTA       FAIR      82  26  13 S17       29.72R
LAMAR          FAIR      80  30  16 S17G25    29.70R
SPRINGFIELD      N/A     68  45  43 S13       29.82R
$$




USA.gov is the U.S. government's official web portal to all federal, state and local government web resources and services.